Regional Weather Roundup
Issued by NWS Grand Forks, ND

Home | Current Version | Previous Version | Graphics & Text | Print | Product List | Glossary On
Versions: 1 2 3 4 5 6 7 8 9 10 11 12 13 14 15 16 17 18 19 20 21 22 23 24 25 26 27 28 29 30 31 32 33 34 35 36 37 38 39 40 41 42 43 44 45 46 47 48 49 50
000
ASUS43 KFGF 230310
RWRFGF
PRAIRIE TO PINES  WEATHER ROUNDUP
NATIONAL WEATHER SERVICE EASTERN NORTH DAKOTA/GRAND FORKS ND
1000 PM CDT TUE APR 22 2014

 **SATELLITE DATA USED TO AUGMENT SKY COVER AT AUTOMATED STATIONS**
 *****  WEATHER ACROSS EASTERN NORTH DAKOTA  *****

CITY           SKY/WX    TMP DP  RH WIND       PRES   REMARKS
GRAND FORKS    PTCLDY    52  32  46 E12       29.98S
GRAND FRKS AFB PTCLDY    50  33  53 E8        29.98S
GRAND FRKS NWS   N/A     50 N/A N/A E9          N/A
DEVILS LAKE    MOCLDY    50  34  53 E16       29.92R
FARGO          PTCLDY    52  33  48 SE9       29.97S
WAHPETON ARPT  PTCLDY    52  30  43 SE12      29.99R
$$

 ***** WEATHER ACROSS CENTRAL AND WESTERN NORTH DAKOTA  *****

CITY           SKY/WX    TMP DP  RH WIND       PRES   REMARKS
BISMARCK       PTCLDY    58  32  37 E23G32    29.76F
MINOT          MOCLDY    54  32  43 E17G24    29.79R
JAMESTOWN      PTCLDY    51  33  50 SE15      29.89S
MINOT AFB      MOCLDY    51  36  55 E18       29.79R
GARRISON         N/A     53  34  48 E18       29.76R
WILLISTON      CLOUDY    60  30  32 E16G29    29.65S
DICKINSON      MOCLDY    56  30  37 E26G33    29.64S
HETTINGER      CLOUDY    56  30  37 E22G30    29.63F
$$

 *****  OTHER AIRPORT OBSERVATIONS IN OUR AREA  *****

CITY           SKY/WX    TMP DP  RH WIND       PRES   REMARKS
WALHALLA         N/A     46  32  57 E8        29.98S
GRAFTON AIRPOR FAIR      46  37  71 E12       29.99R
VALLEY CITY AR CLOUDY    50  32  50 SE12      29.94R
CANDO          FAIR      48  34  57 SE16      29.92R
CAVALIER APRT  FAIR      46  37  71 E10       29.99R
GWINNER        MOCLDY    54  36  50 SE15      29.95R
ROLLA          FAIR      46  34  61 SE16      29.92R
 ***** THE ABOVE OBSERVATIONS ARE NON NWS ARE NOT QUALITY
       CONTROLLED AND MAY MIS-REPORT RAIN FOR SNOW...
$$

  *****  WEATHER ACROSS NORTHERN MINNESOTA  *****

CITY           SKY/WX    TMP DP  RH WIND       PRES   REMARKS
FLAG ISLAND    CLEAR     36  19  51 CALM      30.06R
WARROAD        CLEAR     37  27  65 E6        30.06S
ROSEAU         CLEAR     43  25  49 E8        30.06R
HALLOCK        CLOUDY    46  34  61 E15       30.01R
THF RVR FALLS  CLEAR     45  28  53 E9        30.03S
BAUDETTE       CLEAR     39  24  55 E6        30.06R
WASKISH        CLEAR     34  27  75 CALM      30.07R
CROOKSTON      PTCLDY    48  32  53 E9        30.01S
$$
  *****  WEATHER ACROSS CENTRAL AND WEST MINNESOTA  *****

CITY           SKY/WX    TMP DP  RH WIND       PRES   REMARKS
FOSSTON        CLEAR     37  21  52 E5        30.03S
BEMIDJI        CLEAR     38  21  52 CALM      30.05R
PARK RAPIDS    CLEAR     46  24  42 E7        30.03S
ELBOW LAKE     FAIR      51  35  54 E9        30.00R
WADENA         CLEAR     46  27  46 E7        30.03S
DETROIT LAKES  CLEAR     50  30  46 SE7       30.02S
MOORHEAD       PTCLDY    52  34  50 SE7       29.99S
FERGUS FALLS   CLEAR     52  28  40 E9        29.97S
MORRIS MN      MOCLDY    52  34  50 SE12      30.00R
STAPLES        CLEAR     43  23  45 E3        30.05S
$$
  *****  WEATHER ELSEWHERE ACROSS MINNESOTA  *****

CITY           SKY/WX    TMP DP  RH WIND       PRES   REMARKS
DULUTH         CLEAR     41  20  43 CALM      30.07R
INTRNTL FALLS  CLEAR     31  25  78 CALM      30.07R
ELY            CLEAR     30  23  74 CALM      30.08R
CLOQUET        CLEAR     37  18  44 CALM      30.08R
WHEATON        MOCLDY    54  37  54 E14       30.00R
BRAINERD       CLEAR     44  26  49 CALM      30.07R
HIBBING        CLEAR     30  22  72 CALM      30.07R
ALEXANDRIA     PTCLDY    50  31  48 SE7       30.03S
SAINT CLOUD    CLEAR     47  27  45 E5        30.06R
MINNEAPOLIS    MOCLDY    51  24  34 E8        30.08R
$$

  *****  WEATHER ACROSS SOUTH DAKOTA  *****

CITY           SKY/WX    TMP DP  RH WIND       PRES   REMARKS
SIOUX FALLS    MOCLDY    59  33  37 SE14G21   29.95S
BROOKINGS      NOT AVBL
WATERTOWN      CLOUDY    55  33  43 SE12G18   29.95R
HURON          CLOUDY    59  31  34 SE16G25   29.87R
SISSETON         N/A     53  35  50 SE15      29.96R
ABERDEEN       CLOUDY    55  34  45 SE17      29.87S
MITCHELL         N/A     60  33  36 SE22      29.88R
PIERRE         CLOUDY    62  33  33 SE22G30   29.69S
MOBRIDGE       LGT RAIN  56  35  45 SE26G38   29.70F
RAPID CITY     CLOUDY    63  44  50 S16       29.58F
$$

  *****  SOME WEATHER IN NEARBY STATES *****

CITY           SKY/WX    TMP DP  RH WIND       PRES   REMARKS
GLASGOW MT     MOCLDY    65  35  33 E22G31    29.47R
GREAT FALLS MT HVY RAIN  45  44  97 W8        29.53R FOG
CHEYENNE WY    CLOUDY    60  33  36 S6        29.73F
SCOTTSBLUFF NE CLOUDY    68  39  34 E10       29.62F
OMAHA NE       CLOUDY    63  33  32 E12       29.98R
DES MOINES IA  MOCLDY    59  32  36 E8        30.05R
DAVENPORT IA   CLEAR     44  29  55 N7        30.05R
CHICAGO IL     CLEAR     41  26  55 E9        30.07R
EAU CLAIRE WI  CLEAR     36  23  59 CALM      30.09R
LA CROSSE WI   CLEAR     46  29  51 NW5       30.08R
$$

  *****  SOME NATIONAL WEATHER *****

CITY           SKY/WX    TMP DP  RH WIND       PRES   REMARKS
LA GUARDIA NY  CLOUDY    64  48  56 W9        29.51F
RALEIGH NC     MOCLDY    64  54  69 W7        29.71S
ATLANTA GA     PTCLDY    62  59  90 W9        29.89R
NEW ORLEANS LA PTCLDY    70  64  81 N3        29.93R
OKLAHOMA CITY  PTCLDY    60  42  51 SE8       29.95R
ALBUQUERQUE NM PTCLDY    72  28  19 S14       29.86S
SALT LAKE CITY LGT RAIN  44  44 100 NW17G24   29.82R
LOS ANGELES CA PTCLDY    62  47  57 W12       29.90S
BOISE ID       CLOUDY    45  34  65 W12       29.82R
SEATTLE WA     LGT RAIN  46  42  86 S8        29.89S
$$

*** WEATHER ACROSS MANITOBA...SASKATCHEWAN AND ONTARIO ***
                ***ONTARIO***

CITY           SKY/WX    TMP DP  RH WIND       PRES   REMARKS
GERALDTON      CLEAR     28  23  80 NW3       30.06R
THUNDER BAY    CLEAR     32  27  80 NW5       30.10R
SIOUX LOOKOUT  CLEAR     30  21  69 S2        30.06S
TORONTO        CLOUDY    43  34  70 NW17G24   29.71S
BIG TROUT LK   CLEAR     32  16  51 NE3       30.05S
PICKLE LAKE    NOT AVBL
DRYDEN         CLEAR     39  19  45 S7        30.06
KENORA         CLEAR     41  21  45 SW3       30.07R
$$
                *** MANITOBA***

CITY           SKY/WX    TMP DP  RH WIND       PRES   REMARKS
BRANDON        CLEAR     50  37  62 E10       29.93R
DAUPHIN        CLEAR     46  39  76 SE12      29.95R
ISLAND LAKE    MOCLDY    37  36  93 E3        30.04R
PILOT MOUND      N/A     45  36  70 E13         N/A
THE PAS        PTCLDY    46  28  49 SE8         N/A
THOMPSON       PTCLDY    36  32  87 NE3       30.04R
WINNIPEG       PTCLDY    45  34  65 E9        30.02R
LYNN LAKE      CLEAR     37  27  65 NE7       30.07R
CHURCHILL      CLOUDY    27  23  86 N9        30.17R WCI  17
GILLAM         PTCLDY    37  23  56 NE10      30.05R
$$
                ***SASKATCHEWAN***

CITY           SKY/WX    TMP DP  RH WIND       PRES   REMARKS
ESTEVAN        CLOUDY    52  37  58 E17G25    29.75R
KINDERSLEY     CLOUDY    61  32  33 E24G35    29.50S
LLOYDMINSTER   CLOUDY    54  39  58 E21       29.58S
PRINCE ALBERT  MOCLDY    46  37  71 E13       29.79S
REGINA         CLOUDY    55  34  44 E23G32    29.72R
YORKTON        CLEAR     45  36  70 E14       29.86S
N. BATTLEFORD  MOCLDY    54  43  66 E25       29.65R
LA RONGE       PTCLDY    46  28  49 E12G18    29.90R
SASKATOON      MOCLDY    52  39  62 E23G30    29.69R
SWIFT CURRENT  MOCLDY    57  30  35 MISG      29.51F
$$
NOTE: THESE ARE AUTOMATED STATIONS WITH LIMITED QUALITY CONTROL
      "FAIR" INDICATES FEW OR NO CLOUDS BELOW 12,000 FEET WITH NO
      SIGNIFICANT WEATHER AND/OR OBSTRUCTIONS TO VISIBILITY.
      SKY/WX - SKY CONDITION AND SIGNIFICANT WEATHER.
      TMP - AIR TEMPERATURE.    DP   - DEWPOINT TEMPERATURE.
      RH  - RELATIVE HUMIDITY.  PRES - PRESSURE.
      HX  - HEAT INDEX.         WCI  - WIND CHILL INDEX.
$



USA.gov is the U.S. government's official web portal to all federal, state and local government web resources and services.